Weather History for KBHM - December, 2013

Change the Weather History Date:

Saturday, December 28, 2013

  Actual Average Record
Temperature  
Mean Temperature 44 °F 44 °F  
Max Temperature 46 °F 54 °F 76 °F (1984)
Min Temperature 41 °F 35 °F 7 °F (1925)
Degree Days  
Heating Degree Days 21 21  
Month to date heating degree days 488 527  
Since 1 July heating degree days 1016 985  
Moisture  
Dew Point 37 °F    
Average Humidity 71    
Maximum Humidity 89    
Minimum Humidity 53    
Precipitation  
Precipitation 1.35 in 0.13 in 3.40 in (1901)
Month to date precipitation 7.00 4.06  
Year to date precipitation 67.81 53.33  
Snow  
Snow 0.00 in 0.00 in - ()
Month to date snowfall 0.0 0.1  
Since 1 July snowfall 0.0 0.1  
Snow Depth 0.00 in    
Sea Level Pressure  
Sea Level Pressure 30.14 in    
Wind  
Wind Speed 5 mph (NE)    
Max Wind Speed 15 mph    
Max Gust Speed 23 mph    
Visibility 5 miles    
Events Rain    
T = Trace of Precipitation, MM = Missing Value Source: NWS Daily Summary

Daily Weather History Graph

Daily Weather History Graph

Search for Another Location

Airport or City:

Trip Planner

Search our weather history database for the weather conditions in past years. The results will help you decide how hot, cold, wet, or windy it might be!

Date:

Astronomy

Dec. 28, 2013 Rise Set
Actual Time 6:50 AM CST 4:47 PM CST
Civil Twilight 6:22 AM CST 5:14 PM CST
Nautical Twilight 5:51 AM CST 5:45 PM CST
Astronomical Twilight 5:21 AM CST 6:16 PM CST
Moon 2:33 AM CST (12/28) 1:32 PM CST (12/28)
Length of Visible Light 10h 51m
Length of Day
9h 56m
Waning Crescent, 19% of the Moon is Illuminated
Dec 28
Waning Crescent
Jan 1
New
Jan 7
First Quarter
Jan 15
Full
Jan 23
Last Quarter

Hourly Weather History & Observations

Time (CST) Temp. Windchill Dew Point Humidity Pressure Visibility Wind Dir Wind Speed Gust Speed Precip Events Conditions
12:53 AM 45.0 °F 42.6 °F 28.0 °F 52% 30.37 in 10.0 mi NE 4.6 mph - N/A   Overcast
1:53 AM 45.0 °F 43.5 °F 28.9 °F 53% 30.38 in 10.0 mi NNE 3.5 mph - N/A   Overcast
2:53 AM 43.0 °F - 30.9 °F 62% 30.36 in 10.0 mi Calm Calm - N/A   Overcast
3:53 AM 44.1 °F - 30.0 °F 58% 30.32 in 10.0 mi Calm Calm - N/A   Overcast
4:53 AM 44.1 °F 40.8 °F 28.9 °F 55% 30.30 in 10.0 mi NNE 5.8 mph - N/A   Overcast
5:53 AM 45.0 °F 43.5 °F 28.9 °F 53% 30.32 in 10.0 mi ENE 3.5 mph - N/A   Overcast
6:53 AM 45.0 °F 42.6 °F 28.9 °F 53% 30.31 in 10.0 mi ENE 4.6 mph - N/A   Overcast
7:53 AM 45.0 °F 42.6 °F 30.9 °F 58% 30.32 in 10.0 mi East 4.6 mph - 0.00 in Rain Light Rain
8:53 AM 42.1 °F 39.2 °F 35.1 °F 76% 30.33 in 7.0 mi ENE 4.6 mph - 0.03 in Rain Light Rain
9:53 AM 42.1 °F 40.2 °F 36.0 °F 79% 30.35 in 7.0 mi Variable 3.5 mph - 0.05 in Rain Light Rain
10:53 AM 43.0 °F 40.3 °F 37.0 °F 80% 30.31 in 10.0 mi ENE 4.6 mph - 0.02 in   Overcast
11:53 AM 43.0 °F - 37.0 °F 80% 30.30 in 6.0 mi Calm Calm - 0.02 in Rain Light Rain
12:53 PM 42.1 °F 35.7 °F 39.0 °F 89% 30.23 in 5.0 mi NE 11.5 mph - 0.07 in Rain Light Rain
1:53 PM 42.1 °F 36.6 °F 39.0 °F 89% 30.18 in 6.0 mi ENE 9.2 mph - 0.06 in Rain Light Rain
2:53 PM 42.1 °F 35.7 °F 37.9 °F 85% 30.15 in 5.0 mi NE 11.5 mph 18.4 mph 0.05 in Rain Light Rain
3:33 PM 41.0 °F 35.8 °F 37.4 °F 87% 30.12 in 2.5 mi NE 8.1 mph - 0.08 in Rain Heavy Rain
3:41 PM 41.0 °F 35.8 °F 37.4 °F 87% 30.12 in 3.0 mi NE 8.1 mph - 0.10 in Rain Rain
3:48 PM 41.0 °F 34.7 °F 37.4 °F 87% 30.11 in 4.0 mi NE 10.4 mph - 0.11 in Rain Rain
3:53 PM 41.0 °F 35.2 °F 37.9 °F 89% 30.11 in 4.0 mi NE 9.2 mph - 0.11 in Rain Light Rain
4:49 PM 41.0 °F 34.7 °F 37.4 °F 87% 30.07 in 3.0 mi NE 10.4 mph 16.1 mph 0.11 in Rain Heavy Rain
4:53 PM 41.0 °F 34.7 °F 37.9 °F 89% 30.07 in 3.0 mi NE 10.4 mph - 0.13 in Rain Heavy Rain
5:53 PM 42.1 °F 35.7 °F 39.0 °F 89% 30.02 in 2.0 mi NE 11.5 mph 16.1 mph 0.25 in Rain Heavy Rain
6:00 PM 42.8 °F 37.5 °F 39.2 °F 87% 30.02 in 1.8 mi NE 9.2 mph 17.3 mph 0.06 in Rain Heavy Rain
6:06 PM 42.8 °F 37.5 °F 39.2 °F 87% 30.02 in 3.0 mi NE 9.2 mph - 0.09 in Rain Rain
6:53 PM 42.1 °F 38.4 °F 39.9 °F 92% 30.03 in 2.5 mi ENE 5.8 mph 18.4 mph 0.29 in Rain Heavy Rain
7:11 PM 42.8 °F - 39.2 °F 87% 30.07 in 1.8 mi Calm Calm - 0.16 in Rain Heavy Rain
7:18 PM 42.8 °F - 41.0 °F 93% 30.07 in 2.5 mi Calm Calm - 0.18 in Rain Rain
7:23 PM 42.8 °F - 41.0 °F 93% 30.06 in 3.0 mi Calm Calm - 0.19 in Rain Light Rain
7:53 PM 42.1 °F 38.4 °F 39.9 °F 92% 30.04 in 4.0 mi NE 5.8 mph - 0.20 in Rain Light Rain
8:28 PM 42.8 °F 41.1 °F 39.2 °F 87% 30.03 in 5.0 mi NNE 3.5 mph - 0.01 in Rain Light Rain
8:53 PM 42.1 °F 40.2 °F 39.9 °F 92% 30.02 in 8.0 mi NNE 3.5 mph - 0.02 in   Overcast
9:18 PM 42.8 °F 40.1 °F 39.2 °F 87% 30.01 in 2.5 mi NNE 4.6 mph - 0.01 in Rain Light Rain
9:31 PM 42.8 °F 40.1 °F 39.2 °F 87% 30.00 in 3.0 mi NE 4.6 mph - 0.01 in   Overcast
9:53 PM 42.1 °F 40.2 °F 39.9 °F 92% 30.01 in 3.0 mi North 3.5 mph - 0.02 in Rain Light Rain
10:03 PM 42.8 °F 41.1 °F 39.2 °F 87% 30.00 in 2.5 mi NNE 3.5 mph - 0.00 in Rain Light Rain
10:35 PM 42.8 °F 41.1 °F 39.2 °F 87% 29.98 in 2.5 mi East 3.5 mph - 0.02 in Rain Light Rain
10:49 PM 42.8 °F 40.1 °F 39.2 °F 87% 29.95 in 3.0 mi ENE 4.6 mph - 0.03 in   Overcast
10:53 PM 42.1 °F 38.4 °F 39.9 °F 92% 29.95 in 4.0 mi ENE 5.8 mph - 0.03 in   Overcast
11:53 PM 42.1 °F 40.2 °F 39.9 °F 92% 29.94 in 10.0 mi ENE 3.5 mph - N/A   Overcast